Weather History for Worland, WY

Change the Weather History Date:

Thursday, February 27, 2014

  Actual Average Record
Temperature  
Mean Temperature 9 °F 29 °F  
Max Temperature 25 °F 43 °F 67 °F (1972)
Min Temperature -7 °F 15 °F -20 °F (1962)
Degree Days  
Heating Degree Days 56 36  
Month to date heating degree days 1422 1119  
Since 1 July heating degree days 6331 5967  
Cooling Degree Days 0 0  
Month to date cooling degree days 0 0  
Year to date cooling degree days 0 0  
Moisture  
Dew Point 6 °F    
Average Humidity 77    
Maximum Humidity 91    
Minimum Humidity 62    
Precipitation  
Precipitation T in 0.01 in 0.24 in (1995)
Month to date precipitation 0.13 0.18  
Year to date precipitation 0.38 0.41  
Sea Level Pressure  
Sea Level Pressure 29.86 in    
Wind  
Wind Speed 2 mph (ESE)    
Max Wind Speed 9 mph    
Max Gust Speed 9 mph    
Visibility 10 miles    
Events      
T = Trace of Precipitation, MM = Missing Value Source: NWS Daily Summary

Daily Weather History Graph

Daily Weather History Graph

Search for Another Location

Airport:

Trip Planner

Search our weather history database for the weather conditions in past years. The results will help you decide how hot, cold, wet, or windy it might be!

Date:

Astronomy

Feb. 27, 2014 Rise Set
Actual Time 6:51 AM MST 5:57 PM MST
Civil Twilight 6:22 AM MST 6:26 PM MST
Nautical Twilight 5:49 AM MST 7:00 PM MST
Astronomical Twilight 5:16 AM MST 7:33 PM MST
Moon 5:29 AM MST (2/27) 4:25 PM MST (2/27)
Length of Visible Light 12h 03m
Length of Day
11h 05m
Waning Crescent, 4% of the Moon is Illuminated
Feb 27
Waning Crescent
Mar 1
New
Mar 8
First Quarter
Mar 16
Full
Mar 23
Last Quarter

Hourly Weather History & Observations

Time (MST) Temp. Windchill Dew Point Humidity Pressure Visibility Wind Dir Wind Speed Gust Speed Precip Events Conditions
12:53 AM -0.9 °F -14.1 °F -5.1 °F 83% 30.10 in 10.0 mi South 6.9 mph - N/A   Clear
1:53 AM -0.9 °F -14.1 °F -4.0 °F 87% 30.08 in 10.0 mi South 6.9 mph - N/A   Clear
2:53 AM -4.0 °F - -8.0 °F 83% 30.05 in 10.0 mi Calm Calm - N/A   Clear
3:53 AM -6.0 °F - -9.9 °F 83% 30.04 in 10.0 mi Calm Calm - N/A   Clear
4:53 AM -5.1 °F -13.6 °F -8.0 °F 87% 30.02 in 10.0 mi South 3.5 mph - N/A   Clear
5:53 AM -5.1 °F - -9.0 °F 83% 30.03 in 10.0 mi Calm Calm - N/A   Clear
6:53 AM -4.0 °F - -8.0 °F 83% 30.01 in 10.0 mi Calm Calm - N/A   Clear
7:53 AM 1.0 °F -8.7 °F -2.0 °F 87% 29.99 in 10.0 mi SW 4.6 mph - N/A   Clear
8:53 AM 7.0 °F -1.7 °F 3.9 °F 87% 29.96 in 10.0 mi SW 4.6 mph - N/A   Clear
9:53 AM 8.1 °F - 3.9 °F 83% 29.95 in 10.0 mi Calm Calm - N/A   Clear
10:53 AM 17.1 °F - 8.1 °F 68% 29.89 in 10.0 mi Calm Calm - N/A   Clear
11:53 AM 19.0 °F - 10.0 °F 68% 29.84 in 10.0 mi Calm Calm - 0.00 in   Clear
12:53 PM 19.9 °F 13.4 °F 10.9 °F 68% 29.80 in 10.0 mi NE 4.6 mph - N/A   Clear
1:53 PM 21.9 °F - 12.0 °F 66% 29.77 in 10.0 mi Calm Calm - N/A   Clear
2:53 PM 23.0 °F - 12.9 °F 65% 29.75 in 10.0 mi Calm Calm - N/A   Clear
3:53 PM 23.0 °F 18.4 °F 14.0 °F 68% 29.74 in 10.0 mi NE 3.5 mph - N/A   Clear
4:53 PM 24.1 °F 19.7 °F 14.0 °F 65% 29.72 in 10.0 mi NNE 3.5 mph - N/A   Clear
5:53 PM 21.0 °F 14.6 °F 14.0 °F 74% 29.73 in 10.0 mi NE 4.6 mph - N/A   Clear
6:53 PM 19.0 °F 13.9 °F 14.0 °F 81% 29.74 in 10.0 mi SE 3.5 mph - N/A   Clear
7:53 PM 19.9 °F - 15.1 °F 81% 29.72 in 10.0 mi Calm Calm - N/A   Clear
8:53 PM 19.9 °F 12.1 °F 12.9 °F 74% 29.70 in 10.0 mi NE 5.8 mph - N/A   Unknown
9:53 PM 19.9 °F - 14.0 °F 78% 29.69 in 10.0 mi Calm Calm - N/A   Mostly Cloudy
10:53 PM 19.9 °F 14.9 °F 14.0 °F 78% 29.66 in 10.0 mi ESE 3.5 mph - N/A   Overcast
11:53 PM 19.9 °F - 16.0 °F 85% 29.65 in 9.0 mi Calm Calm - N/A   Clear